When you browse on this site, cookies collect data to enhance your experience and personalize the content and advertising you see.
Visit our Privacy Policy to learn more. By continuing to use the site, you agree to this use of cookies and data.
  • In United Kingdom
  • List of Countries
  • For 7 days
  • Water Temperature
  • Weather Map
  • Weather Widgets
  • user-avatar
    Login

    Hourly Weather Winchester

    Today, 18 August, Sunday

    Time Temperature Precipitation Wind Pressure Humidity
    00:00 +14°C° 0 mm 3 mps 748 mmHg 88%
    01:00 +14°C° 0 mm 3 mps 747 mmHg 90%
    02:00 +13°C° 0 mm 3 mps 747 mmHg 92%
    03:00 +13°C° 0 mm 3 mps 747 mmHg 94%
    04:00 +13°C° 0.1 mm 3 mps 747 mmHg 93%
    05:00 +14°C° 0.1 mm 3 mps 747 mmHg 92%
    06:00 +14°C° 0.1 mm 3 mps 747 mmHg 91%
    07:00 +15°C° 0.2 mm 4 mps 747 mmHg 85%
    08:00 +16°C° 0.2 mm 6 mps 747 mmHg 79%
    09:00 +16°C° 0.2 mm 7 mps 748 mmHg 72%
    10:00 +17°C° 0 mm 7 mps 748 mmHg 68%
    11:00 +18°C° 0 mm 8 mps 748 mmHg 64%
    12:00 +20°C° 0 mm 8 mps 749 mmHg 60%
    13:00 +20°C° 0.1 mm 8 mps 749 mmHg 61%
    14:00 +20°C° 0.1 mm 8 mps 749 mmHg 61%
    15:00 +20°C° 0.1 mm 8 mps 750 mmHg 62%
    16:00 +18°C° 0.2 mm 7 mps 750 mmHg 66%
    17:00 +17°C° 0.2 mm 6 mps 750 mmHg 70%
    18:00 +16°C° 0.2 mm 6 mps 750 mmHg 74%
    19:00 +15°C° 0 mm 5 mps 751 mmHg 76%
    20:00 +14°C° 0 mm 5 mps 751 mmHg 79%
    21:00 +13°C° 0 mm 5 mps 751 mmHg 81%
    22:00 +12°C° 0 mm 5 mps 752 mmHg 82%
    23:00 +12°C° 0 mm 5 mps 752 mmHg 83%

    Tomorrow, 19 August, Monday

    Time Temperature Precipitation Wind Pressure Humidity
    00:00 +12°C° 0 mm 5 mps 752 mmHg 84%
    01:00 +12°C° 0 mm 5 mps 752 mmHg 85%
    02:00 +12°C° 0 mm 5 mps 753 mmHg 85%
    03:00 +12°C° 0 mm 5 mps 753 mmHg 86%
    04:00 +12°C° 0 mm 5 mps 753 mmHg 86%
    05:00 +12°C° 0 mm 5 mps 753 mmHg 87%
    06:00 +12°C° 0 mm 5 mps 754 mmHg 87%
    07:00 +14°C° 0 mm 5 mps 754 mmHg 82%
    08:00 +15°C° 0 mm 5 mps 754 mmHg 77%
    09:00 +17°C° 0 mm 5 mps 755 mmHg 72%
    10:00 +17°C° 0.7 mm 6 mps 755 mmHg 71%
    11:00 +19°C° 0.7 mm 6 mps 755 mmHg 70%
    12:00 +18°C° 0.7 mm 7 mps 755 mmHg 69%
    13:00 +18°C° 0.2 mm 7 mps 756 mmHg 65%
    14:00 +18°C° 0.2 mm 7 mps 756 mmHg 61%
    15:00 +18°C° 0.2 mm 7 mps 756 mmHg 57%
    16:00 +19°C° 0 mm 6 mps 756 mmHg 60%
    17:00 +17°C° 0 mm 5 mps 757 mmHg 63%
    18:00 +17°C° 0 mm 4 mps 757 mmHg 66%
    19:00 +15°C° 0 mm 4 mps 757 mmHg 71%
    20:00 +13°C° 0 mm 4 mps 758 mmHg 76%
    21:00 +12°C° 0 mm 3 mps 758 mmHg 82%
    22:00 +11°C° 0 mm 3 mps 759 mmHg 84%
    23:00 +11°C° 0 mm 3 mps 759 mmHg 87%

    Day after tomorrow, 20 August, Tuesday

    Time Temperature Precipitation Wind Pressure Humidity
    00:00 +10°C° 0 mm 3 mps 759 mmHg 90%
    01:00 +10°C° 0 mm 3 mps 759 mmHg 91%
    02:00 +10°C° 0 mm 3 mps 759 mmHg 92%
    03:00 +10°C° 0 mm 2 mps 760 mmHg 93%
    04:00 +10°C° 0 mm 2 mps 760 mmHg 92%
    05:00 +10°C° 0 mm 2 mps 760 mmHg 91%
    06:00 +10°C° 0 mm 2 mps 760 mmHg 90%
    07:00 +12°C° 0 mm 3 mps 761 mmHg 82%
    08:00 +14°C° 0 mm 3 mps 761 mmHg 74%
    09:00 +15°C° 0 mm 4 mps 762 mmHg 66%
    10:00 +17°C° 0 mm 3 mps 762 mmHg 62%
    11:00 +18°C° 0 mm 3 mps 762 mmHg 59%
    12:00 +19°C° 0 mm 3 mps 763 mmHg 56%
    13:00 +19°C° 0 mm 4 mps 763 mmHg 58%
    14:00 +20°C° 0 mm 4 mps 763 mmHg 59%
    15:00 +20°C° 0 mm 5 mps 763 mmHg 61%
    16:00 +19°C° 0 mm 4 mps 763 mmHg 65%
    17:00 +19°C° 0 mm 4 mps 763 mmHg 69%
    18:00 +18°C° 0 mm 4 mps 763 mmHg 73%
    19:00 +17°C° 0 mm 3 mps 764 mmHg 79%
    20:00 +14°C° 0 mm 3 mps 764 mmHg 84%
    21:00 +14°C° 0 mm 2 mps 764 mmHg 89%
    22:00 +14°C° 0 mm 2 mps 764 mmHg 90%
    23:00 +13°C° 0 mm 1 mps 764 mmHg 91%

    21 August, Wednesday

    Time Temperature Precipitation Wind Pressure Humidity
    00:00 +13°C° 0 mm 1 mps 764 mmHg 91%
    01:00 +13°C° 0 mm 1 mps 764 mmHg 91%
    02:00 +13°C° 0 mm 1 mps 764 mmHg 92%
    03:00 +13°C° 0 mm 1 mps 764 mmHg 92%
    04:00 +13°C° 0 mm 1 mps 764 mmHg 91%
    05:00 +13°C° 0 mm 1 mps 764 mmHg 90%
    06:00 +13°C° 0 mm 1 mps 764 mmHg 90%
    07:00 +15°C° 0 mm 1 mps 764 mmHg 83%
    08:00 +16°C° 0 mm 2 mps 764 mmHg 76%
    09:00 +18°C° 0 mm 2 mps 764 mmHg 70%
    10:00 +19°C° 0 mm 3 mps 764 mmHg 67%
    11:00 +19°C° 0 mm 3 mps 764 mmHg 64%
    12:00 +20°C° 0 mm 4 mps 764 mmHg 61%
    13:00 +20°C° 0 mm 4 mps 764 mmHg 60%
    14:00 +20°C° 0 mm 4 mps 763 mmHg 60%
    15:00 +20°C° 0 mm 4 mps 763 mmHg 59%
    16:00 +20°C° 0 mm 4 mps 763 mmHg 63%
    17:00 +19°C° 0 mm 4 mps 763 mmHg 66%
    18:00 +18°C° 0 mm 3 mps 763 mmHg 70%
    19:00 +16°C° 0 mm 3 mps 763 mmHg 74%
    20:00 +14°C° 0 mm 3 mps 763 mmHg 79%
    21:00 +14°C° 0 mm 2 mps 764 mmHg 84%
    22:00 +13°C° 0 mm 2 mps 764 mmHg 86%
    23:00 +13°C° 0 mm 2 mps 764 mmHg 89%

    22 August, Thursday

    Time Temperature Precipitation Wind Pressure Humidity
    00:00 +12°C° 0 mm 2 mps 764 mmHg 91%
    01:00 +12°C° 0 mm 2 mps 763 mmHg 92%
    02:00 +12°C° 0 mm 1 mps 763 mmHg 92%
    03:00 +12°C° 0 mm 1 mps 763 mmHg 93%
    04:00 +12°C° 0 mm 1 mps 763 mmHg 92%
    05:00 +12°C° 0 mm 1 mps 763 mmHg 92%
    06:00 +12°C° 0 mm 1 mps 763 mmHg 92%
    07:00 +14°C° 0 mm 2 mps 764 mmHg 85%
    08:00 +16°C° 0 mm 2 mps 764 mmHg 78%
    09:00 +17°C° 0 mm 3 mps 764 mmHg 71%
    10:00 +18°C° 0 mm 3 mps 764 mmHg 66%
    11:00 +20°C° 0 mm 3 mps 764 mmHg 61%
    12:00 +21°C° 0 mm 3 mps 764 mmHg 56%
    13:00 +21°C° 0 mm 3 mps 764 mmHg 57%
    14:00 +22°C° 0 mm 3 mps 764 mmHg 58%
    15:00 +22°C° 0 mm 3 mps 764 mmHg 59%
    16:00 +21°C° 0 mm 3 mps 764 mmHg 64%
    17:00 +20°C° 0 mm 3 mps 763 mmHg 69%
    18:00 +20°C° 0 mm 3 mps 763 mmHg 74%
    19:00 +18°C° 0 mm 2 mps 764 mmHg 79%
    20:00 +17°C° 0 mm 2 mps 764 mmHg 85%
    21:00 +15°C° 0 mm 1 mps 764 mmHg 91%
    22:00 +15°C° 0 mm 1 mps 764 mmHg 91%
    23:00 +15°C° 0 mm 1 mps 764 mmHg 92%

    23 August, Friday

    Time Temperature Precipitation Wind Pressure Humidity
    00:00 +15°C° 0 mm 1 mps 763 mmHg 92%
    01:00 +14°C° 0 mm 1 mps 763 mmHg 92%
    02:00 +14°C° 0 mm 1 mps 763 mmHg 92%
    03:00 +14°C° 0 mm 1 mps 762 mmHg 92%
    04:00 +14°C° 0 mm 1 mps 762 mmHg 92%
    05:00 +15°C° 0 mm 1 mps 762 mmHg 92%
    06:00 +15°C° 0 mm 1 mps 762 mmHg 92%
    07:00 +16°C° 0 mm 2 mps 762 mmHg 85%
    08:00 +18°C° 0 mm 2 mps 762 mmHg 79%
    09:00 +20°C° 0 mm 2 mps 762 mmHg 72%
    10:00 +21°C° 0 mm 3 mps 762 mmHg 63%
    11:00 +22°C° 0 mm 3 mps 762 mmHg 55%
    12:00 +24°C° 0 mm 3 mps 761 mmHg 46%
    13:00 +25°C° 0 mm 3 mps 761 mmHg 44%
    14:00 +25°C° 0 mm 3 mps 760 mmHg 41%
    15:00 +25°C° 0 mm 3 mps 760 mmHg 39%
    16:00 +24°C° 0 mm 3 mps 760 mmHg 45%
    17:00 +23°C° 0 mm 2 mps 759 mmHg 50%
    18:00 +21°C° 0 mm 2 mps 759 mmHg 56%
    19:00 +20°C° 0 mm 2 mps 759 mmHg 61%
    20:00 +18°C° 0 mm 2 mps 759 mmHg 65%
    21:00 +17°C° 0 mm 3 mps 759 mmHg 70%
    22:00 +16°C° 0 mm 3 mps 758 mmHg 73%
    23:00 +16°C° 0 mm 3 mps 758 mmHg 76%
    Show more